GW1938 Weather Reports


time (UTC)temp
F
wind
direction
speed
knots
gust
knots
rain 1hr
in
rain 24hr
in
rain mn
in
humidity
%
barometer
mb
20260903053527 76 292 7.0 14.8 0.00 0.00 0.00 42 1009.5
20260903053024 77 294 7.8 17.4 0.00 0.00 0.00 40 1009.4
20260903052523 76 288 7.8 14.8 0.00 0.00 0.00 43 1009.3
20260903051518 76 271 9.6 17.4 0.00 0.00 0.00 42 1009.3
20260903045507 77 275 10.4 16.5 0.00 0.00 0.00 41 1009.2
20260903045006 78 295 7.8 14.8 0.00 0.00 0.00 38 1009.1
20260903044503 77 281 10.4 16.5 0.00 0.00 0.00 43 1009.0
20260903044003 77 273 10.4 18.2 0.00 0.00 0.00 42 1009.0
20260903043500 77 284 9.6 17.4 0.00 0.00 0.00 40 1008.9
20260903042957 78 287 7.8 15.6 0.00 0.00 0.00 40 1008.8
20260903042456 80 306 8.7 15.6 0.00 0.00 0.00 35 1008.7
20260903041953 80 302 14.8 26.9 0.00 0.00 0.00 34 1008.6
20260903041450 80 305 13.9 22.6 0.00 0.00 0.00 34 1008.5
20260903040940 79 293 11.3 18.2 0.00 0.00 0.00 35 1008.6
20260903040439 77 286 9.6 15.6 0.00 0.00 0.00 40 1008.6
20260903035938 77 278 11.3 18.2 0.00 0.00 0.00 42 1008.6
20260903035434 77 285 9.6 17.4 0.00 0.00 0.00 42 1008.6
20260903034920 77 283 10.4 20.0 0.00 0.00 0.00 38 1008.4
20260903034419 78 291 9.6 19.1 0.00 0.00 0.00 40 1008.3
20260903033918 78 290 9.6 18.2 0.00 0.00 0.00 38 1008.3
20260903033416 78 294 9.6 17.4 0.00 0.00 0.00 41 1008.2
20260903032412 77 288 11.3 20.0 0.00 0.00 0.00 40 1008.2
20260903031904 79 292 12.2 23.5 0.00 0.00 0.00 36 1008.2
20260903031403 78 280 14.8 24.3 0.00 0.00 0.00 36 1008.2
20260903025853 78 276 16.5 26.9 0.00 0.00 0.00 37 1008.1
20260903024847 78 282 13.9 30.4 0.00 0.00 0.00 39 1007.9
20260903024346 78 292 9.6 20.9 0.00 0.00 0.00 40 1008.1
20260903023843 78 284 13.0 27.8 0.00 0.00 0.00 38 1008.1
20260903023342 78 272 15.6 26.1 0.00 0.00 0.00 40 1008.1
20260903022840 77 270 16.5 26.1 0.00 0.00 0.00 39 1008.0
20260903022338 77 269 16.5 28.7 0.00 0.00 0.00 37 1007.9
20260903021835 77 284 11.3 21.7 0.00 0.00 0.00 41 1008.1
20260903021332 78 289 11.3 21.7 0.00 0.00 0.00 38 1008.1
20260903020821 78 285 13.9 25.2 0.00 0.00 0.00 39 1008.1
20260903020319 78 287 13.0 33.0 0.00 0.00 0.00 39 1008.1
20260903015817 78 270 14.8 31.3 0.00 0.00 0.00 36 1008.1
20260903015316 78 267 16.5 35.6 0.00 0.00 0.00 36 1008.1
20260903014815 78 279 12.2 24.3 0.00 0.00 0.00 38 1008.2
20260903014313 79 290 13.9 25.2 0.00 0.00 0.00 38 1008.2
20260903013255 78 292 8.7 19.1 0.00 0.00 0.00 40 1008.4
20260903012250 80 297 9.6 17.4 0.00 0.00 0.00 35 1008.3
20260903011749 80 301 9.6 17.4 0.00 0.00 0.00 35 1008.3
20260903010240 81 310 22.6 31.3 0.00 0.00 0.00 32 1008.1
20260903005739 81 304 16.5 27.8 0.00 0.00 0.00 34 1008.2
20260903005237 81 302 8.7 15.6 0.00 0.00 0.00 36 1008.4
20260903004734 80 299 11.3 20.9 0.00 0.00 0.00 37 1008.4
20260903004231 80 307 12.2 22.6 0.00 0.00 0.00 34 1008.4
20260903003730 80 309 18.2 27.8 0.00 0.00 0.00 33 1008.4
20260903003226 80 307 15.6 24.3 0.00 0.00 0.00 34 1008.3
20260903002721 80 307 17.4 26.9 0.00 0.00 0.00 36 1008.5
20260903002218 80 305 15.6 23.5 0.00 0.00 0.00 34 1008.3
20260903001716 78 305 14.8 27.8 0.00 0.00 0.00 35 1008.2
20260903001215 78 313 10.4 14.8 0.00 0.00 0.00 37 1008.5
20260903000712 77 326 9.6 15.6 0.00 0.00 0.00 42 1008.6
20260903000211 78 333 9.6 13.0 0.00 0.00 0.00 40 1008.6
20260902235200 78 339 14.8 19.1 0.00 0.00 0.00 40 1008.6
20260902234659 78 341 13.9 20.9 0.00 0.00 0.00 40 1008.6
20260902234158 78 339 13.0 18.2 0.00 0.00 0.00 40 1008.7
20260902232649 77 342 13.0 19.1 0.00 0.00 0.00 40 1008.8
20260902232148 77 344 13.0 20.9 0.00 0.00 0.00 41 1008.8
20260902231644 77 343 13.9 18.2 0.00 0.00 0.00 41 1009.0
20260902231141 77 343 14.8 20.9 0.00 0.00 0.00 40 1009.0
20260902230120 76 343 16.5 21.7 0.00 0.00 0.00 41 1009.0
20260902225614 76 339 16.5 21.7 0.00 0.00 0.00 42 1009.2
20260902225112 76 341 15.6 20.9 0.00 0.00 0.00 44 1009.2
20260902224608 75 342 17.4 22.6 0.00 0.00 0.00 44 1009.1
20260902224106 75 340 16.5 20.0 0.00 0.00 0.00 45 1009.1
20260902223552 74 342 14.8 20.0 0.00 0.00 0.00 46 1009.2
20260902223049 73 336 13.0 17.4 0.00 0.00 0.00 47 1009.3
20260902222546 73 335 9.6 13.0 0.00 0.00 0.00 50 1009.4
20260902222044 73 346 6.1 7.8 0.00 0.00 0.00 55 1009.5
20260902221544 72 4 4.3 6.1 0.00 0.00 0.00 59 1009.6
20260902221042 70 13 4.3 6.1 0.00 0.00 0.00 60 1009.6
20260902220541 69 20 4.3 6.1 0.00 0.00 0.00 61 1009.6
20260902220040 69 28 4.3 7.0 0.00 0.00 0.00 60 1009.6
20260902215036 68 33 4.3 7.0 0.00 0.00 0.00 59 1009.7
20260902214535 68 31 5.2 7.0 0.00 0.00 0.00 61 1009.7
20260902213531 68 23 6.1 8.7 0.00 0.00 0.00 57 1009.8
20260902213030 68 15 5.2 8.7 0.00 0.00 0.00 54 1009.8
20260902212528 68 11 6.1 7.8 0.00 0.00 0.00 56 1009.8
20260902211020 68 5 6.1 11.3 0.00 0.00 0.00 53 1009.8
20260902210519 68 11 7.8 14.8 0.00 0.00 0.00 52 1009.9
20260902210018 67 2 8.7 10.4 0.00 0.00 0.00 55 1009.8
20260902205508 66 1 6.1 8.7 0.00 0.00 0.00 57 1009.7
20260902205006 65 0 5.2 7.0 0.00 0.00 0.00 60 1009.8
20260902204504 66 355 6.1 9.6 0.00 0.00 0.00 58 1009.9
20260902204001 66 353 7.0 9.6 0.00 0.00 0.00 55 1009.9
20260902203500 66 3 7.8 10.4 0.00 0.00 0.00 57 1009.6
20260902202454 66 55 5.2 7.8 0.00 0.00 0.00 63 1009.8
20260902201951 65 69 3.5 6.1 0.00 0.00 0.00 59 1009.8
20260902201448 65 53 3.5 4.3 0.00 0.00 0.00 62 1009.9
20260902200947 64 19 3.5 5.2 0.00 0.00 0.00 62 1009.9
20260902200445 64 355 5.2 7.0 0.00 0.00 0.00 62 1010.0
20260902195942 64 1 7.0 7.8 0.00 0.00 0.00 62 1009.9
20260902195439 64 351 7.0 7.8 0.00 0.00 0.00 62 1009.9
20260902194434 64 5 7.0 8.7 0.00 0.00 0.00 63 1009.9
20260902193430 64 0 4.3 6.1 0.00 0.00 0.00 64 1009.9
20260902192923 64 351 5.2 7.8 0.00 0.00 0.00 68 1010.0
20260902192339 64 346 5.2 6.1 0.00 0.00 0.00 65 1010.0
20260902191837 64 15 3.5 6.1 0.00 0.00 0.00 63 1009.9
20260902191334 64 349 3.5 7.8 0.00 0.00 0.00 63 1010.0
20260902190832 64 336 1.7 3.5 0.00 0.00 0.00 63 1009.9
20260902185824 65 35 2.6 5.2 0.00 0.00 0.00 62 1010.1
20260902185323 64 41 4.3 9.6 0.00 0.00 0.00 64 1010.0
20260902184821 64 24 3.5 4.3 0.00 0.00 0.00 71 1010.1
20260902184320 64 79 2.6 4.3 0.00 0.00 0.00 70 1010.1
20260902183815 64 32 3.5 7.8 0.00 0.00 0.00 70 1010.3
20260902183312 64 1 5.2 8.7 0.00 0.00 0.00 68 1010.3
20260902182808 64 360 7.0 8.7 0.00 0.00 0.00 66 1010.2
20260902182306 64 353 6.1 7.8 0.00 0.00 0.00 66 1010.4
20260902181805 64 357 5.2 7.0 0.00 0.00 0.00 64 1010.3
20260902180748 65 322 3.5 4.3 0.00 0.00 0.00 61 1010.5
20260902180244 65 317 3.5 4.3 0.00 0.00 0.00 62 1010.5
20260902175743 65 333 2.6 3.5 0.00 0.00 0.00 64 1010.6
20260902175240 65 325 2.6 4.3 0.00 0.00 0.00 64 1010.7
20260902173726 65 310 3.5 4.3 0.00 0.00 0.00 65 1010.8
20260902173225 64 307 3.5 4.3 0.00 0.00 0.00 68 1010.9
20260902171213 64 333 7.0 8.7 0.00 0.00 0.00 67 1011.0
20260902170208 64 342 8.7 11.3 0.00 0.00 0.00 68 1010.9
20260902165703 64 345 7.8 10.4 0.00 0.00 0.00 70 1010.9
20260902165159 65 5 4.3 7.0 0.00 0.00 0.00 67 1010.9
20260902164656 65 337 4.3 7.0 0.00 0.00 0.00 62 1011.2
20260902164153 66 299 2.6 5.2 0.00 0.00 0.00 59 1011.5
20260902163650 65 317 3.5 6.1 0.00 0.00 0.00 59 1011.5
20260902163148 66 322 5.2 9.6 0.00 0.00 0.00 60 1011.7
20260902162645 66 325 6.1 10.4 0.00 0.00 0.00 61 1011.8
20260902162143 66 319 5.2 10.4 0.00 0.00 0.00 58 1011.7
20260902161641 66 309 7.0 10.4 0.00 0.00 0.00 57 1012.0
20260902161139 66 306 6.1 9.6 0.00 0.00 0.00 58 1011.9
20260902160637 66 303 5.2 7.8 0.00 0.00 0.00 56 1012.0
20260902160131 67 307 7.0 10.4 0.00 0.00 0.00 55 1011.9
20260902155629 66 316 7.8 10.4 0.00 0.00 0.00 56 1012.0
20260902155129 65 308 7.8 8.7 0.00 0.00 0.00 59 1012.0
20260902154122 65 312 6.1 7.8 0.00 0.00 0.00 60 1012.2
20260902153619 65 319 5.2 8.7 0.00 0.00 0.00 65 1012.3
20260902153116 65 318 4.3 6.1 0.00 0.00 0.00 60 1012.3
20260902152614 65 317 3.5 4.3 0.00 0.00 0.00 59 1012.3
20260902152111 65 316 3.5 4.3 0.00 0.00 0.00 58 1012.4
20260902151611 65 309 2.6 3.5 0.00 0.00 0.00 58 1012.4
20260902151109 65 292 2.6 4.3 0.00 0.00 0.00 58 1012.4
20260902145559 64 349 1.7 2.6 0.00 0.00 0.00 61 1012.5
20260902145056 64 338 2.6 3.5 0.00 0.00 0.00 61 1012.5
20260902144553 64 337 3.5 4.3 0.00 0.00 0.00 61 1012.6
20260902144052 64 335 4.3 7.8 0.00 0.00 0.00 60 1012.5
20260902143551 65 331 6.1 7.8 0.00 0.00 0.00 59 1012.5
20260902143049 65 332 6.1 7.8 0.00 0.00 0.00 57 1012.5
20260902142547 65 329 4.3 7.0 0.00 0.00 0.00 57 1012.5
20260902141542 66 312 5.2 6.1 0.00 0.00 0.00 55 1012.7
20260902141040 65 316 6.1 7.8 0.00 0.00 0.00 56 1012.8
20260902140538 0 320 7.0 9.6 0.00 0.00 0.00
20260902140037 65 322 7.0 9.6 0.00 0.00 0.00 60 1012.8
20260902135537 64 326 6.1 7.0 0.00 0.00 0.00 61 1012.7
20260902135035 64 328 7.0 9.6 0.00 0.00 0.00 61 1012.7
20260902134533 65 327 6.1 7.0 0.00 0.00 0.00 59 1012.8
20260902133528 65 319 4.3 6.1 0.00 0.00 0.00 59 1012.9
20260902133026 65 325 2.6 4.3 0.00 0.00 0.00 56 1012.9
20260902132525 66 324 2.6 7.0 0.00 0.00 0.00 57 1012.8
20260902132024 66 317 4.3 5.2 0.00 0.00 0.00 58 1012.9
20260902131523 66 317 4.3 7.0 0.00 0.00 0.00 57 1012.9
20260902131022 66 318 4.3 6.1 0.00 0.00 0.00 56 1012.9
20260902130017 66 306 5.2 6.1 0.00 0.00 0.00 55 1013.0
20260902125012 67 308 6.1 7.0 0.00 0.00 0.00 56 1013.1
20260902124511 67 309 6.1 7.8 0.00 0.00 0.00 54 1013.0
20260902123506 68 307 7.0 7.8 0.00 0.00 0.00 50 1013.2
20260902123005 68 305 7.0 7.8 0.00 0.00 0.00 50 1013.3
20260902122503 68 307 7.0 9.6 0.00 0.00 0.00 51 1013.4
20260902122002 68 311 7.8 9.6 0.00 0.00 0.00 51 1013.5
20260902120452 68 308 6.1 7.8 0.00 0.00 0.00 50 1013.5
20260902115951 68 297 5.2 7.0 0.00 0.00 0.00 49 1013.5
20260902114945 68 302 5.2 7.0 0.00 0.00 0.00 50 1013.5
20260902114443 68 301 3.5 5.2 0.00 0.00 0.00 50 1013.4
20260902113941 68 313 2.6 3.5 0.00 0.00 0.00 53 1013.5
20260902113439 68 304 2.6 5.2 0.00 0.00 0.00 52 1013.5
20260902112936 68 310 2.6 6.1 0.00 0.00 0.00 53 1013.5
20260902110422 69 312 3.5 5.2 0.00 0.00 0.00 50 1013.6
20260902105919 69 317 4.3 7.0 0.00 0.00 0.00 48 1013.6
20260902105416 69 316 6.1 7.8 0.00 0.00 0.00 49 1013.5
20260902104915 69 319 4.3 7.0 0.00 0.00 0.00 49 1013.5
20260902104413 68 321 3.5 5.2 0.00 0.00 0.00 50 1013.4
20260902103406 69 310 2.6 4.3 0.00 0.00 0.00 49 1013.3
20260902102903 69 318 3.5 6.1 0.00 0.00 0.00 49 1013.3
20260902102401 69 325 4.3 7.8 0.00 0.00 0.00 48 1013.2
20260902101356 69 301 1.7 3.5 0.00 0.00 0.00 48 1013.2
20260902100852 68 303 1.7 3.5 0.00 0.00 0.00 50 1013.1
20260902100350 68 321 2.6 5.2 0.00 0.00 0.00 51 1013.1
20260902095846 69 328 4.3 7.0 0.00 0.00 0.00 50 1013.0
20260902095344 69 331 5.2 7.0 0.00 0.00 0.00 50 1012.9
20260902094843 69 321 4.3 6.1 0.00 0.00 0.00 49 1012.9
20260902094341 69 324 4.3 7.0 0.00 0.00 0.00 49 1012.9
20260902093838 69 332 5.2 7.8 0.00 0.00 0.00 48 1012.9
20260902093336 69 329 6.1 7.0 0.00 0.00 0.00 47 1012.8
20260902092832 69 336 7.8 8.7 0.00 0.00 0.00 49 1012.7
20260902092329 69 338 8.7 10.4 0.00 0.00 0.00 47 1012.7
20260902091827 70 340 9.6 11.3 0.00 0.00 0.00 46 1012.7
20260902091326 70 342 10.4 11.3 0.00 0.00 0.00 46 1012.6
20260902090824 70 340 10.4 11.3 0.00 0.00 0.00 46 1012.6
20260902090320 71 340 11.3 11.3 0.00 0.00 0.00 45 1012.6
20260902085820 71 340 11.3 11.3 0.00 0.00 0.00 45 1012.4
20260902085318 71 339 12.2 12.2 0.00 0.00 0.00 44 1012.5
20260902084312 72 335 13.0 13.0 0.00 0.00 0.00 43 1012.4
20260902083809 72 333 12.2 13.0 0.00 0.00 0.00 43 1012.3
20260902083308 72 332 12.2 13.0 0.00 0.00 0.00 44 1012.3
20260902082805 72 332 11.3 13.0 0.00 0.00 0.00 44 1012.3
20260902082308 72 334 12.2 13.9 0.00 0.00 0.00 43 1012.3
20260902081801 73 336 12.2 13.0 0.00 0.00 0.00 42 1012.3
20260902080757 73 338 12.2 12.2 0.00 0.00 0.00 42 1012.3
20260902080255 73 339 11.3 12.2 0.00 0.00 0.00 42 1012.2
20260902075249 73 335 10.4 11.3 0.00 0.00 0.00 43 1012.2
20260902074747 73 333 7.8 11.3 0.00 0.00 0.00 42 1012.2
20260902074245 73 331 7.8 9.6 0.00 0.00 0.00 42 1012.1
20260902073236 73 323 8.7 13.0 0.00 0.00 0.00 43 1012.1
20260902072231 74 329 7.8 10.4 0.00 0.00 0.00 41 1012.0
20260902071728 74 320 10.4 14.8 0.00 0.00 0.00 44 1011.9
20260902071225 74 309 12.2 15.6 0.00 0.00 0.00 44 1011.9
20260902070721 75 312 12.2 14.8 0.00 0.00 0.00 42 1011.9
20260902070218 75 308 11.3 15.6 0.00 0.00 0.00 42 1011.9
20260902065716 76 308 9.6 16.5 0.00 0.00 0.00 41 1011.9
20260902065214 76 314 11.3 17.4 0.00 0.00 0.00 40 1011.8
20260902064711 76 315 17.4 21.7 0.00 0.00 0.00 39 1011.8
20260902064208 77 313 15.6 25.2 0.00 0.00 0.00 37 1011.8
20260902062658 76 310 11.3 18.2 0.00 0.00 0.00 40 1011.8
20260902062156 77 308 7.8 15.6 0.00 0.00 0.00 39 1011.8
20260902061653 77 306 12.2 18.2 0.00 0.00 0.00 39 1011.8
20260902061151 77 309 13.0 18.2 0.00 0.00 0.00 40 1011.8
20260902060649 77 307 12.2 19.1 0.00 0.00 0.00 38 1011.7
20260902060146 78 308 13.0 19.1 0.00 0.00 0.00 37 1011.6
20260902055645 78 308 15.6 20.9 0.00 0.00 0.00 38 1011.7
20260902054639 77 308 14.8 21.7 0.00 0.00 0.00 41 1011.7
20260902054135 77 308 10.4 18.2 0.00 0.00 0.00 41 1011.8
20260902053633 78 307 13.9 21.7 0.00 0.00 0.00 37 1011.8